Weather History for Spokane, WA

Change the Weather History Date:

Sunday, March 30, 2014

  Actual Average Record
Temperature  
Mean Temperature 43 °F 44 °F  
Max Temperature 50 °F 53 °F 74 °F (1881)
Min Temperature 35 °F 35 °F 19 °F (1982)
Degree Days  
Heating Degree Days 22 21  
Month to date heating degree days 758 746  
Since 1 July heating degree days 5801 5575  
Cooling Degree Days 0 0  
Month to date cooling degree days 0 0  
Year to date cooling degree days 0 0  
Moisture  
Dew Point 31 °F    
Average Humidity 67    
Maximum Humidity 92    
Minimum Humidity 42    
Precipitation  
Precipitation T in 0.05 in 0.63 in (1959)
Month to date precipitation 2.88 1.56  
Year to date precipitation 5.70 4.68  
Snow  
Snow 0.00 in 0.10 in 4.60 in (2008)
Month to date snowfall 5.8 3.4  
Since 1 July snowfall 37.6 43.7  
Snow Depth 0.00 in    
Sea Level Pressure  
Sea Level Pressure 29.86 in    
Wind  
Wind Speed 12 mph (SSW)    
Max Wind Speed 25 mph    
Max Gust Speed 29 mph    
Visibility 10 miles    
Events      
T = Trace of Precipitation, MM = Missing Value Source: NWS Daily Summary

Daily Weather History Graph

Daily Weather History Graph

Search for Another Location

Airport:

Trip Planner

Search our weather history database for the weather conditions in past years. The results will help you decide how hot, cold, wet, or windy it might be!

Date:

Astronomy

Mar. 30, 2014 Rise Set
Actual Time 6:32 AM PDT 7:17 PM PDT
Civil Twilight 6:01 AM PDT 7:48 PM PDT
Nautical Twilight 5:24 AM PDT 8:25 PM PDT
Astronomical Twilight 4:45 AM PDT 9:04 PM PDT
Moon 6:21 AM PDT (3/30) 7:37 PM PDT (3/30)
Length of Visible Light 13h 46m
Length of Day
12h 44m
Waxing Crescent, 0% of the Moon is Illuminated
Mar 30
Waxing Crescent
Apr 7
First Quarter
Apr 15
Full
Apr 22
Last Quarter
Apr 28
New

Hourly Weather History & Observations

Time (PDT) Temp. Windchill Dew Point Humidity Pressure Visibility Wind Dir Wind Speed Gust Speed Precip Events Conditions
12:53 AM 37.9 °F 30.9 °F 33.1 °F 83% 29.79 in 10.0 mi South 10.4 mph - N/A   Clear
1:53 AM 36.0 °F 28.5 °F 33.1 °F 89% 29.80 in 10.0 mi South 10.4 mph - N/A   Partly Cloudy
2:53 AM 35.1 °F 27.4 °F 33.1 °F 92% 29.81 in 10.0 mi South 10.4 mph - N/A   Partly Cloudy
3:53 AM 35.1 °F 26.4 °F 32.0 °F 89% 29.80 in 10.0 mi South 12.7 mph - N/A   Partly Cloudy
4:53 AM 35.1 °F 26.9 °F 32.0 °F 89% 29.81 in 10.0 mi SSW 11.5 mph - N/A   Partly Cloudy
5:03 AM 35.1 °F 26.4 °F 32.0 °F 89% 29.79 in 10.0 mi SSW 12.7 mph - N/A   Partly Cloudy
5:53 AM 35.1 °F 26.4 °F 32.0 °F 89% 29.82 in 10.0 mi SSW 12.7 mph - N/A   Partly Cloudy
6:07 AM 35.1 °F 25.9 °F 33.1 °F 92% 29.80 in 10.0 mi SSW 13.8 mph - N/A   Mostly Cloudy
6:53 AM 35.1 °F 26.4 °F 33.1 °F 92% 29.84 in 10.0 mi SSW 12.7 mph - N/A   Overcast
7:53 AM 36.0 °F 27.5 °F 33.1 °F 89% 29.86 in 10.0 mi SSW 12.7 mph - N/A   Overcast
8:53 AM 36.0 °F 26.3 °F 33.1 °F 89% 29.86 in 10.0 mi SSW 16.1 mph - N/A   Mostly Cloudy
9:31 AM 37.9 °F 29.6 °F 34.0 °F 86% 29.83 in 10.0 mi SSW 13.8 mph - N/A   Mostly Cloudy
9:53 AM 39.9 °F 32.5 °F 34.0 °F 79% 29.87 in 10.0 mi SSW 12.7 mph - N/A   Mostly Cloudy
10:53 AM 42.1 °F 35.2 °F 33.1 °F 70% 29.87 in 10.0 mi South 12.7 mph - N/A   Mostly Cloudy
11:53 AM 46.0 °F 39.6 °F 33.1 °F 61% 29.87 in 10.0 mi SW 15.0 mph - N/A   Mostly Cloudy
12:53 PM 48.0 °F - 32.0 °F 54% 29.86 in 10.0 mi SW 15.0 mph - N/A   Mostly Cloudy
1:53 PM 48.9 °F - 30.9 °F 50% 29.85 in 10.0 mi SSW 16.1 mph 24.2 mph N/A   Mostly Cloudy
2:53 PM 50.0 °F - 30.9 °F 48% 29.84 in 10.0 mi SW 24.2 mph - N/A   Mostly Cloudy
3:53 PM 46.0 °F 37.8 °F 30.0 °F 54% 29.87 in 10.0 mi SW 23.0 mph - 0.00 in   Mostly Cloudy
4:53 PM 46.9 °F - 28.9 °F 50% 29.86 in 10.0 mi South 10.4 mph - N/A   Mostly Cloudy
5:53 PM 48.0 °F - 28.9 °F 48% 29.87 in 10.0 mi SW 11.5 mph - 0.00 in   Mostly Cloudy
6:53 PM 48.0 °F - 26.1 °F 42% 29.88 in 10.0 mi SSW 10.4 mph - N/A   Mostly Cloudy
7:53 PM 45.0 °F 40.6 °F 27.0 °F 49% 29.91 in 10.0 mi SSW 8.1 mph - N/A   Mostly Cloudy
8:53 PM 42.1 °F 37.7 °F 27.0 °F 55% 29.93 in 10.0 mi SSE 6.9 mph - N/A   Scattered Clouds
9:53 PM 39.9 °F 34.5 °F 28.9 °F 65% 29.94 in 10.0 mi SSE 8.1 mph - N/A   Mostly Cloudy
10:53 PM 39.0 °F 33.4 °F 27.0 °F 62% 29.94 in 10.0 mi SSE 8.1 mph - N/A   Scattered Clouds
11:53 PM 37.0 °F 30.4 °F 28.0 °F 70% 29.95 in 10.0 mi South 9.2 mph - N/A   Scattered Clouds